Regional Weather Roundup
Issued by NWS Northern Indiana

Home | Current Version | Previous Version | Graphics & Text | Print | Product List | Glossary On
Versions: 1 2 3 4 5 6 7 8 9 10 11 12 13 14 15 16 17 18 19 20 21 22 23 24 25 26 27 28 29 30 31 32 33 34 35 36 37 38 39 40 41 42 43 44 45 46 47 48 49 50
000
ASUS43 KIWX 290210
RWRIWX

KIWX WEATHER ROUNDUP
NATIONAL WEATHER SERVICE NORTHERN INDIANA
1000 PM EDT FRI APR 28 2017

NOTE: "FAIR" INDICATES FEW OR NO CLOUDS BELOW 12,000 FEET WITH NO
SIGNIFICANT WEATHER AND/OR OBSTRUCTIONS TO VISIBILITY.

* THESE STATIONS ARE NOT UNDER NWS QUALITY CONTROL. THEY ALSO MAY NOT
  REPORT WEATHER SUCH AS PRECIPITATION OR FOG.

INZ001>027-290300-
NORTHERN INDIANA

CITY           SKY/WX    TMP DP  RH WIND       PRES   REMARKS
GARY*          PTCLDY    48  45  87 CALM      29.94R
VALPARAISO     CLOUDY    56  51  84 CALM      29.93R
MICHIGAN CITY* CLOUDY    55  52  88 CALM      29.94R
LAPORTE*       CLOUDY    54  51  88 SE3       29.93R
KNOX*          CLOUDY    54  34  47 E5        29.92R
SOUTH BEND     CLOUDY    56  49  77 SE5       29.93R
GOSHEN         CLOUDY    55  48  77 SE7       29.93R
MONTICELLO*    LGT RAIN  54  52  95 E6        29.88F
LOGANSPORT*    LGT RAIN  52  50  93 E5        29.90F
ROCHESTER*     LGT RAIN  55  52  88 E6        29.92S
WARSAW*        CLOUDY    52  50  93 E5        29.93R
ANGOLA*        CLOUDY    54  43  66 SE3       29.95R
FORT WAYNE     LGT RAIN  53  49  86 E5        29.94R
HUNTINGTON*    LGT RAIN  52  50  95 NE3       29.92F
PERU/GRISSOM   LGT RAIN  53  53 100 E8        29.87F

$$
INZ028>050-290300-
CENTRAL INDIANA

CITY           SKY/WX    TMP DP  RH WIND       PRES   REMARKS
LAFAYETTE      CLOUDY    55  54  96 E6        29.87F
KOKOMO*        CLOUDY    54  53  97 E6        29.90F FOG
MUNCIE*        CLOUDY    57  54  89 E9        29.89R
INDIANAPOLIS   CLOUDY    56  55  97 N12       29.88R

$$
MIZ043>046-050>051-056>058-064>065-071>073-077>080-290300-
SOUTHWEST LOWER MICHIGAN

CITY           SKY/WX    TMP DP  RH WIND       PRES   REMARKS
BATTLE CREEK   CLOUDY    57  49  74 S8        29.94R
BENTON HARBOR  CLOUDY    53  47  79 CALM      29.93R
COLDWATER*     MOCLDY    54  46  74 S6        29.95R
HILLSDALE*     CLOUDY    52  45  76 S6        29.96R
HOLLAND        CLOUDY    55  44  66 N5        29.95R
GRAND RAPIDS   CLOUDY    56  47  71 N7        29.93R
KALAMAZOO      CLOUDY    57  47  69 S9        29.94R
STURGIS*       CLOUDY    55  46  74 S7        29.94R
THREE RIVERS*  CLOUDY    55  46  72 S7        29.94R

$$
OHZ001>008-015>018-024>025-290300-
NORTHWEST OHIO

CITY           SKY/WX    TMP DP  RH WIND       PRES   REMARKS
WAUSEON*       CLOUDY    54  52  94 SE5       29.96R
DEFIANCE       LGT RAIN  52  50  93 CALM      29.97R
FINDLAY        LGT RAIN  55  50  83 SE5       29.94R
TOLEDO EXPRESS CLOUDY    53  51  93 CALM      29.95R
TOLEDO METCALF CLOUDY    55  51  86 E3        29.95S
LIMA           RAIN      55  53  93 SE13      29.93R FOG

$$
AND FOR LAKE MICHIGAN COASTAL AND OPEN LAKE BUOY OBSERVATIONS

STATION/POSITION TEMP    WIND        PRES    VSBY  WAVE
                 AIR SEA DIR/SP/G                  HT/PER
                 (F)     (DEG/KT/KT) (MB)    (MI)  (FT/S)
CALUMET HARBOR    47     340/  6/  9 1013.3R
MICHIGAN CITY     48      30/  6/  7   N/A
BURNS HARBOR      49      CALM  /  8 1013.5R
SOUTH LAKE BUOY   42 42   30/  8/ 10 1013.5          0
4 MI NW BRIDGMAN  48 48   30/  8/ 10 1014.0          1/ 3
MICHIGAN CITY     45 46                N/A           1/ 3

$$
&&




USA.gov is the U.S. government's official web portal to all federal, state and local government web resources and services.